User: anonymous   Login
Location: Asheville, NC
(35.6000°N, 82.5500°W)
Time: 02:53:46
(UTC-05:00)
Language:

Vanguard 2 Rocket - Orbit

View from above orbital plane
View from above orbital plane
View from above satellite
View from above satellite

Ground track
Ground track

The orbit data is extracted from the following two-line orbital elements,

1    12U 59001B   19018.04455008 -.00000091  00000-0 -76198-4 0  9990
2    12  32.9128 357.6167 1666690 241.0514 101.2970 11.44232063463386
Epoch (UTC): 18 January 2019 01:04:09
Eccentricity: 0.1666690
inclination: 32.9128°
perigee height: 554 km
apogee height: 3327 km
right ascension of ascending node: 357.6167°
argument of perigee: 241.0514°
revolutions per day: 11.44232063
mean anomaly at epoch: 101.2970°
orbit number at epoch: 46338

The dashed part of the orbit path shows where the satellite is in the earth's shadow,  

DLR